User: anonymous   Login
Location: Remedello Sotto
(45.2500°N, 10.3667°E)
Time: 20:27:34
(UTC+00:00)
Language:

Cosmos 2333 Rocket - Orbit

View from above orbital plane
View from above orbital plane
View from above satellite
View from above satellite

Ground track
Ground track

The orbit data is extracted from the following two-line orbital elements,

1 24298U 96051B   24113.63282362 -.00000098  00000-0 -26802-4 0  9990
2 24298  70.8093 186.0921 0014203  63.0220 297.2349 14.12489429424778
Epoch (UTC): 22 April 2024 15:11:15
Eccentricity: 0.0014203
inclination: 70.8093°
perigee height: 840 km
apogee height: 861 km
right ascension of ascending node: 186.0921°
argument of perigee: 63.0220°
revolutions per day: 14.12489429
mean anomaly at epoch: 297.2349°
orbit number at epoch: 42477

The dashed part of the orbit path shows where the satellite is in the earth's shadow,  

DLR